Flag for Sweden Weather past 2 weeks in Karlstad, Sweden

Now
30 °F

Ice fog.


Feels Like: 30 °F
Forecast: 30 / 45 °F
Wind: No wind

Location: Karlstad

Current Time: Mar 31, 2015 at 7:23:13 AM

Latest Report: Mar 31, 2015 at 6:50 AM


Visibility: 5 mi

Pressure: 28.97 "Hg

Humidity: 100%

Dew point: 30 °F

Location of KarlstadLocation

Historic Weather in Karlstad — Graph

°F

Karlstad temperature yesterday

Maximum temperature yesterday: 43 °F (at 4:50 PM)
Minimum temperature yesterday: 34 °F (at 10:50 PM)
Average temperature yesterday: 38 °F

Past Weeks' High & Low Weather Summary

 TemperatureHumidityPressure
High54 °F (Mar 24, 3:50 PM)100% (Mar 19, 12:50 AM)30.83 "Hg (Mar 19, 12:50 AM)
Low19 °F (Mar 21, 11:50 PM)30% (Mar 24, 3:50 PM)28.91 "Hg (Mar 30, 5:20 AM)
Average38 °F80%29.95 "Hg
* Reported Mar 16 5:20 AM — Mar 31 6:20 AM, Karlstad, Weather by CustomWeather, © 2015

Note: Actual official high and low records may vary slightly from our data, if they occured in-between our weather recording intervals... More about our weather records

Advertising

Karlstad weather history for previous 24 hours

 ConditionsComfort  
Time TempWeatherWind HumidityBarometerVisibility
6:20 AM
Tue, Mar 31
30 °FPassing clouds.3 mph100%28.97 "HgN/A
5:50 AM30 °FLight fog.3 mph100%29.00 "HgN/A
5:20 AM32 °FPassing clouds.3 mph100%29.00 "HgN/A
4:50 AM32 °FPassing clouds.3 mph100%29.00 "HgN/A
4:20 AM32 °FOvercast.3 mph100%29.03 "HgN/A
3:50 AM30 °FIce fog.3 mph100%29.03 "Hg6 mi
3:20 AM32 °FPassing clouds.3 mph100%29.03 "HgN/A
2:50 AM34 °FPassing clouds.2 mph93%29.06 "HgN/A
2:20 AM34 °FMostly cloudy.3 mph93%29.06 "HgN/A
1:20 AM30 °FPassing clouds.5 mph100%29.06 "HgN/A
12:50 AM32 °FChilly.3 mph93%29.06 "HgN/A
12:20 AM34 °FChilly.3 mph93%29.06 "HgN/A
11:50 PM
Mon, Mar 30
34 °FChilly.3 mph93%29.06 "HgN/A
11:20 PM34 °FChilly.3 mph93%29.09 "HgN/A
10:50 PM34 °FChilly.3 mph93%29.09 "HgN/A
10:20 PM37 °FChilly.3 mph81%29.09 "HgN/A
9:50 PM37 °FChilly.3 mph81%29.09 "HgN/A
9:20 PM37 °FPassing clouds.5 mph81%29.09 "HgN/A
8:50 PM39 °FPassing clouds.3 mph81%29.09 "HgN/A
8:20 PM39 °FPassing clouds.3 mph81%29.09 "HgN/A
7:50 PM41 °FScattered clouds.3 mph76%29.06 "HgN/A
7:20 PM41 °FPassing clouds.6 mph76%29.06 "HgN/A
6:50 PM41 °FPassing clouds.8 mph70%29.06 "HgN/A
6:20 PM43 °FPassing clouds.10 mph66%29.06 "HgN/A
5:50 PM43 °FScattered clouds.12 mph71%29.06 "HgN/A
5:20 PM43 °FPartly sunny.12 mph71%29.03 "HgN/A
4:50 PM43 °FScattered clouds.10 mph71%29.03 "HgN/A
4:20 PM41 °FPartly sunny.12 mph76%29.03 "HgN/A
3:50 PM41 °FPartly sunny.12 mph76%29.00 "HgN/A
3:20 PM41 °FPartly sunny.10 mph76%29.00 "HgN/A
2:50 PM41 °FPartly sunny.12 mph81%29.00 "HgN/A
2:20 PM41 °FMostly cloudy.10 mph81%29.00 "HgN/A
1:50 PM39 °FPartly sunny.12 mph81%28.97 "HgN/A
1:20 PM41 °FPartly sunny.10 mph81%28.97 "HgN/A
12:50 PM39 °FPartly sunny.10 mph87%28.97 "HgN/A
12:20 PM39 °FPartly sunny.9 mph87%28.97 "HgN/A
11:50 AM39 °FPartly sunny.9 mph87%28.97 "HgN/A
11:20 AM39 °FPartly sunny.9 mph87%28.97 "HgN/A
10:50 AM37 °FPartly sunny.8 mph93%28.94 "HgN/A
10:20 AM37 °FLight rain. More clouds than sun.8 mph93%28.94 "HgN/A
9:50 AM37 °FLight rain. More clouds than sun.7 mph93%28.94 "HgN/A
9:20 AM37 °FPartly sunny.7 mph93%28.94 "HgN/A
8:50 AM37 °FPartly sunny.7 mph93%28.94 "HgN/A
8:20 AM36 °FPartly sunny.6 mph100%28.94 "HgN/A
7:50 AM36 °FPartly sunny.6 mph100%28.94 "HgN/A
7:20 AM36 °FPassing clouds.7 mph100%28.94 "HgN/A
Weather by CustomWeather, © 2015

See weather overviewHow to use our weather pages